When you browse on this site, cookies collect data to enhance your experience and personalize the content and advertising you see.
Visit our Privacy Policy to learn more. By continuing to use the site, you agree to this use of cookies and data.

Stündliche Wetter Bolshie Nyrsi

Heute, 25 September, Freitag

Zeit Temperatur Niederschläge Wind Luftdruck Luftfeuchtigkeit
00:00 +8°C° 0 mm 2 m/S 760 mmHg 74%
01:00 +8°C° 0 mm 2 m/S 760 mmHg 76%
02:00 +8°C° 0 mm 2 m/S 761 mmHg 77%
03:00 +8°C° 0 mm 2 m/S 761 mmHg 78%
04:00 +7°C° 0 mm 2 m/S 761 mmHg 79%
05:00 +7°C° 0 mm 2 m/S 761 mmHg 79%
06:00 +7°C° 0 mm 2 m/S 761 mmHg 80%
07:00 +9°C° 0 mm 3 m/S 761 mmHg 76%
08:00 +11°C° 0 mm 3 m/S 761 mmHg 72%
09:00 +12°C° 0 mm 3 m/S 761 mmHg 67%
10:00 +13°C° 0 mm 3 m/S 761 mmHg 64%
11:00 +14°C° 0 mm 3 m/S 761 mmHg 61%
12:00 +17°C° 0 mm 3 m/S 761 mmHg 57%
13:00 +17°C° 0 mm 3 m/S 761 mmHg 57%
14:00 +17°C° 0 mm 3 m/S 761 mmHg 57%
15:00 +17°C° 0 mm 3 m/S 761 mmHg 57%
16:00 +14°C° 0 mm 3 m/S 761 mmHg 63%
17:00 +14°C° 0 mm 2 m/S 761 mmHg 68%
18:00 +12°C° 0 mm 2 m/S 761 mmHg 73%
19:00 +12°C° 0 mm 2 m/S 761 mmHg 74%
20:00 +12°C° 0 mm 2 m/S 761 mmHg 74%
21:00 +10°C° 0 mm 2 m/S 762 mmHg 75%
22:00 +10°C° 0 mm 2 m/S 762 mmHg 75%
23:00 +9°C° 0 mm 2 m/S 761 mmHg 75%

Morgen, 26 September, Samstag

Zeit Temperatur Niederschläge Wind Luftdruck Luftfeuchtigkeit
00:00 +9°C° 0 mm 2 m/S 761 mmHg 75%
01:00 +9°C° 0 mm 2 m/S 762 mmHg 75%
02:00 +9°C° 0 mm 2 m/S 762 mmHg 74%
03:00 +8°C° 0 mm 2 m/S 762 mmHg 74%
04:00 +8°C° 0 mm 2 m/S 762 mmHg 74%
05:00 +8°C° 0 mm 2 m/S 762 mmHg 75%
06:00 +8°C° 0 mm 2 m/S 762 mmHg 76%
07:00 +9°C° 0 mm 2 m/S 762 mmHg 73%
08:00 +11°C° 0 mm 3 m/S 762 mmHg 69%
09:00 +12°C° 0 mm 3 m/S 763 mmHg 65%
10:00 +13°C° 0 mm 3 m/S 763 mmHg 63%
11:00 +14°C° 0 mm 3 m/S 763 mmHg 60%
12:00 +16°C° 0 mm 3 m/S 763 mmHg 57%
13:00 +16°C° 0 mm 3 m/S 763 mmHg 57%
14:00 +16°C° 0 mm 3 m/S 763 mmHg 56%
15:00 +17°C° 0 mm 3 m/S 763 mmHg 55%
16:00 +15°C° 0 mm 2 m/S 763 mmHg 60%
17:00 +14°C° 0 mm 2 m/S 763 mmHg 65%
18:00 +13°C° 0 mm 2 m/S 763 mmHg 69%
19:00 +12°C° 0 mm 2 m/S 763 mmHg 70%
20:00 +10°C° 0 mm 2 m/S 763 mmHg 71%
21:00 +10°C° 0 mm 2 m/S 763 mmHg 72%
22:00 +10°C° 0 mm 2 m/S 763 mmHg 72%
23:00 +10°C° 0 mm 2 m/S 763 mmHg 72%

übermorgen, 27 September, Sonntag

Zeit Temperatur Niederschläge Wind Luftdruck Luftfeuchtigkeit
00:00 +10°C° 0 mm 2 m/S 763 mmHg 73%
01:00 +9°C° 0 mm 2 m/S 764 mmHg 73%
02:00 +9°C° 0 mm 2 m/S 764 mmHg 74%
03:00 +9°C° 0 mm 2 m/S 764 mmHg 75%
04:00 +9°C° 0 mm 2 m/S 764 mmHg 75%
05:00 +9°C° 0 mm 2 m/S 764 mmHg 75%
06:00 +8°C° 0 mm 2 m/S 764 mmHg 75%
07:00 +10°C° 0 mm 2 m/S 764 mmHg 71%
08:00 +12°C° 0 mm 2 m/S 764 mmHg 66%
09:00 +14°C° 0 mm 2 m/S 764 mmHg 62%
10:00 +14°C° 0 mm 2 m/S 764 mmHg 60%
11:00 +14°C° 0 mm 3 m/S 764 mmHg 57%
12:00 +16°C° 0 mm 3 m/S 764 mmHg 55%
13:00 +16°C° 0 mm 2 m/S 764 mmHg 55%
14:00 +16°C° 0 mm 2 m/S 764 mmHg 56%
15:00 +16°C° 0 mm 2 m/S 764 mmHg 56%
16:00 +15°C° 0 mm 2 m/S 764 mmHg 60%
17:00 +14°C° 0 mm 2 m/S 764 mmHg 64%
18:00 +13°C° 0 mm 2 m/S 764 mmHg 68%
19:00 +12°C° 0 mm 2 m/S 764 mmHg 68%
20:00 +12°C° 0 mm 1 m/S 764 mmHg 69%
21:00 +11°C° 0 mm 1 m/S 764 mmHg 69%
22:00 +10°C° 0 mm 2 m/S 764 mmHg 70%
23:00 +10°C° 0 mm 2 m/S 765 mmHg 70%

28 September, Montag

Zeit Temperatur Niederschläge Wind Luftdruck Luftfeuchtigkeit
00:00 +10°C° 0 mm 2 m/S 765 mmHg 70%
01:00 +11°C° 0 mm 1 m/S 765 mmHg 71%
02:00 +10°C° 0 mm 1 m/S 765 mmHg 71%
03:00 +10°C° 0 mm 1 m/S 765 mmHg 71%
04:00 +10°C° 0 mm 1 m/S 765 mmHg 73%
05:00 +9°C° 0 mm 1 m/S 765 mmHg 74%
06:00 +9°C° 0 mm 1 m/S 765 mmHg 75%
07:00 +11°C° 0 mm 1 m/S 765 mmHg 69%
08:00 +12°C° 0 mm 2 m/S 765 mmHg 63%
09:00 +14°C° 0 mm 2 m/S 765 mmHg 58%
10:00 +15°C° 0 mm 2 m/S 765 mmHg 54%
11:00 +16°C° 0 mm 2 m/S 765 mmHg 51%
12:00 +17°C° 0 mm 2 m/S 765 mmHg 47%
13:00 +17°C° 0 mm 2 m/S 765 mmHg 48%
14:00 +17°C° 0 mm 2 m/S 765 mmHg 48%
15:00 +17°C° 0 mm 2 m/S 764 mmHg 49%
16:00 +16°C° 0 mm 2 m/S 764 mmHg 53%
17:00 +14°C° 0 mm 1 m/S 764 mmHg 58%
18:00 +13°C° 0 mm 1 m/S 764 mmHg 62%
19:00 +12°C° 0 mm 1 m/S 764 mmHg 63%
20:00 +12°C° 0 mm 1 m/S 764 mmHg 63%
21:00 +12°C° 0 mm 1 m/S 764 mmHg 64%
22:00 +12°C° 0 mm 2 m/S 764 mmHg 65%
23:00 +10°C° 0 mm 2 m/S 764 mmHg 65%

29 September, Dienstag

Zeit Temperatur Niederschläge Wind Luftdruck Luftfeuchtigkeit
00:00 +10°C° 0 mm 2 m/S 764 mmHg 65%
01:00 +10°C° 0 mm 2 m/S 764 mmHg 66%
02:00 +10°C° 0 mm 2 m/S 764 mmHg 66%
03:00 +10°C° 0 mm 2 m/S 764 mmHg 66%
04:00 +9°C° 0 mm 2 m/S 764 mmHg 67%
05:00 +9°C° 0 mm 2 m/S 764 mmHg 67%
06:00 +9°C° 0 mm 2 m/S 764 mmHg 68%
07:00 +10°C° 0 mm 2 m/S 764 mmHg 65%
08:00 +12°C° 0 mm 2 m/S 764 mmHg 62%
09:00 +13°C° 0 mm 3 m/S 764 mmHg 60%
10:00 +14°C° 0 mm 3 m/S 764 mmHg 57%
11:00 +16°C° 0 mm 3 m/S 764 mmHg 54%
12:00 +17°C° 0 mm 3 m/S 764 mmHg 52%
13:00 +17°C° 0 mm 3 m/S 764 mmHg 53%
14:00 +17°C° 0 mm 2 m/S 764 mmHg 54%
15:00 +17°C° 0 mm 2 m/S 764 mmHg 55%
16:00 +16°C° 0 mm 2 m/S 763 mmHg 58%
17:00 +15°C° 0 mm 2 m/S 763 mmHg 61%
18:00 +14°C° 0 mm 2 m/S 763 mmHg 63%
19:00 +14°C° 0 mm 2 m/S 763 mmHg 63%
20:00 +13°C° 0 mm 2 m/S 763 mmHg 63%
21:00 +13°C° 0 mm 2 m/S 763 mmHg 63%
22:00 +13°C° 0 mm 2 m/S 763 mmHg 64%
23:00 +12°C° 0 mm 2 m/S 763 mmHg 65%

30 September, Mittwoch

Zeit Temperatur Niederschläge Wind Luftdruck Luftfeuchtigkeit
00:00 +12°C° 0 mm 2 m/S 763 mmHg 67%
01:00 +12°C° 0 mm 2 m/S 763 mmHg 67%
02:00 +10°C° 0 mm 2 m/S 763 mmHg 68%
03:00 +10°C° 0 mm 2 m/S 763 mmHg 69%
04:00 +10°C° 0 mm 2 m/S 763 mmHg 70%
05:00 +10°C° 0 mm 2 m/S 763 mmHg 71%
06:00 +10°C° 0 mm 2 m/S 763 mmHg 72%
07:00 +12°C° 0 mm 2 m/S 763 mmHg 69%
08:00 +13°C° 0 mm 2 m/S 763 mmHg 65%
09:00 +15°C° 0 mm 2 m/S 763 mmHg 61%
10:00 +16°C° 0 mm 2 m/S 763 mmHg 57%
11:00 +17°C° 0 mm 2 m/S 763 mmHg 53%
12:00 +18°C° 0 mm 3 m/S 763 mmHg 49%
13:00 +18°C° 0 mm 2 m/S 763 mmHg 50%
14:00 +18°C° 0 mm 2 m/S 763 mmHg 50%
15:00 +18°C° 0 mm 2 m/S 762 mmHg 51%
16:00 +17°C° 0 mm 2 m/S 762 mmHg 56%
17:00 +15°C° 0 mm 2 m/S 762 mmHg 62%
18:00 +14°C° 0 mm 2 m/S 762 mmHg 67%
19:00 +13°C° 0 mm 2 m/S 763 mmHg 69%
20:00 +12°C° 0 mm 2 m/S 763 mmHg 71%
21:00 +12°C° 0 mm 2 m/S 763 mmHg 73%
22:00 +12°C° 0 mm 2 m/S 763 mmHg 74%
23:00 +10°C° 0 mm 2 m/S 763 mmHg 76%
Mehr zeigen